Weather History for Huntsville Madison, AL

Change the Weather History Date:

Friday, January 17, 2014

  Actual Average (KHSV) Record (KHSV)
Temperature  
Mean Temperature 34 °F 41 °F  
Max Temperature 41 °F 51 °F 76 °F (1943)
Min Temperature 26 °F 32 °F -4 °F (1982)
Degree Days  
Heating Degree Days 30 24  
Month to date heating degree days 408  
Since 1 July heating degree days 1589  
Cooling Degree Days 0 0  
Month to date cooling degree days 0  
Year to date cooling degree days 0  
Moisture  
Dew Point 17 °F    
Average Humidity 51    
Maximum Humidity 75    
Minimum Humidity 31    
Precipitation  
Precipitation 0.00 in 0.16 in 1.91 in (2006)
Month to date precipitation 2.71  
Year to date precipitation 2.71  
Snow  
Snow 0.00 in - - ()
Month to date snowfall  
Since 1 July snowfall  
Snow Depth -    
Sea Level Pressure  
Sea Level Pressure 30.02 in    
Wind  
Wind Speed 7 mph (West)    
Max Wind Speed 21 mph    
Max Gust Speed 28 mph    
Visibility 10 miles    
Events      
T = Trace of Precipitation, MM = Missing Value Source: NWS Daily Summary

Daily Weather History Graph

Daily Weather History Graph

Search for Another Location

Airport:

Trip Planner

Search our weather history database for the weather conditions in past years. The results will help you decide how hot, cold, wet, or windy it might be!

Date:

Astronomy

Jan. 17, 2014 Rise Set
Actual Time 6:52 AM CST 5:00 PM CST
Civil Twilight 6:25 AM CST 5:27 PM CST
Nautical Twilight 5:54 AM CST 5:58 PM CST
Astronomical Twilight 5:24 AM CST 6:28 PM CST
Moon 6:40 PM CST (1/17) 7:25 AM CST (1/17)
Length of Visible Light 11h 02m
Length of Day
10h 07m
Full, 98% of the Moon is Illuminated
Jan 17
Full
Jan 23
Last Quarter
Jan 30
New
Feb 6
First Quarter
Feb 14
Full

Hourly Weather History & Observations

Time (CST) Temp. Windchill Dew Point Humidity Pressure Visibility Wind Dir Wind Speed Gust Speed Precip Events Conditions
12:15 AM 35.6 °F - 23.0 °F 60% 29.91 in 10.0 mi Calm Calm - N/A   Clear
12:35 AM 33.8 °F - 23.0 °F 65% 29.92 in 10.0 mi Calm Calm - N/A   Clear
12:55 AM 32.0 °F - 24.8 °F 75% 29.91 in 10.0 mi Calm Calm - N/A   Clear
1:15 AM 32.0 °F - 23.0 °F 69% 29.91 in 10.0 mi Calm Calm - N/A   Clear
1:35 AM 32.0 °F - 24.8 °F 75% 29.90 in 10.0 mi Calm Calm - N/A   Clear
1:55 AM 32.0 °F 24.8 °F 23.0 °F 69% 29.90 in 10.0 mi SSW 8.1 mph - N/A   Clear
2:15 AM 35.6 °F 29.2 °F 23.0 °F 60% 29.91 in 10.0 mi SSW 8.1 mph - N/A   Clear
2:35 AM 35.6 °F 28.6 °F 23.0 °F 60% 29.91 in 10.0 mi SSW 9.2 mph - N/A   Clear
2:55 AM 35.6 °F 28.6 °F 23.0 °F 60% 29.91 in 10.0 mi SSW 9.2 mph - N/A   Clear
3:15 AM 35.6 °F 29.2 °F 23.0 °F 60% 29.91 in 10.0 mi SSW 8.1 mph - N/A   Clear
3:35 AM 35.6 °F 28.6 °F 23.0 °F 60% 29.91 in 10.0 mi SSW 9.2 mph - N/A   Clear
3:55 AM 35.6 °F 28.6 °F 24.8 °F 65% 29.90 in 10.0 mi SSW 9.2 mph - N/A   Clear
4:15 AM 35.6 °F 28.0 °F 24.8 °F 65% 29.90 in 10.0 mi SSW 10.4 mph - N/A   Clear
4:35 AM 35.6 °F 28.0 °F 24.8 °F 65% 29.91 in 10.0 mi SSW 10.4 mph - N/A   Clear
4:55 AM 35.6 °F 28.6 °F 24.8 °F 65% 29.91 in 10.0 mi SSW 9.2 mph - N/A   Clear
5:15 AM 33.8 °F 27.7 °F 24.8 °F 70% 29.91 in 10.0 mi SSW 6.9 mph - N/A   Clear
5:35 AM 33.8 °F 26.4 °F 24.8 °F 70% 29.92 in 10.0 mi SSW 9.2 mph - N/A   Clear
5:55 AM 35.6 °F 29.9 °F 24.8 °F 65% 29.93 in 10.0 mi WSW 6.9 mph - N/A   Clear
6:15 AM 33.8 °F 27.7 °F 24.8 °F 70% 29.94 in 10.0 mi WSW 6.9 mph - N/A   Clear
6:35 AM 33.8 °F 28.6 °F 24.8 °F 70% 29.94 in 10.0 mi WSW 5.8 mph - N/A   Clear
6:55 AM 33.8 °F 28.6 °F 24.8 °F 70% 29.96 in 10.0 mi WSW 5.8 mph - N/A   Clear
7:15 AM 33.8 °F 28.6 °F 24.8 °F 70% 29.97 in 10.0 mi West 5.8 mph - N/A   Clear
7:35 AM 33.8 °F 27.0 °F 23.0 °F 65% 29.98 in 10.0 mi West 8.1 mph - N/A   Clear
7:55 AM 35.6 °F 29.2 °F 23.0 °F 60% 29.99 in 10.0 mi West 8.1 mph - N/A   Clear
8:15 AM 35.6 °F 29.2 °F 23.0 °F 60% 30.00 in 10.0 mi West 8.1 mph - N/A   Clear
8:35 AM 37.4 °F 31.4 °F 23.0 °F 56% 30.01 in 10.0 mi West 8.1 mph - N/A   Clear
8:55 AM 37.4 °F 28.5 °F 19.4 °F 48% 30.02 in 10.0 mi WNW 15.0 mph 21.9 mph N/A   Scattered Clouds
9:15 AM 37.4 °F 29.3 °F 19.4 °F 48% 30.02 in 10.0 mi West 12.7 mph 17.3 mph N/A   Scattered Clouds
9:35 AM 37.4 °F 29.8 °F 17.6 °F 45% 30.02 in 10.0 mi West 11.5 mph 18.4 mph N/A   Clear
9:55 AM 39.2 °F 30.8 °F 12.2 °F 33% 30.02 in 10.0 mi West 15.0 mph 20.7 mph N/A   Clear
10:15 AM 39.2 °F 29.8 °F 12.2 °F 33% 30.02 in 10.0 mi West 18.4 mph 23.0 mph N/A   Clear
10:35 AM 39.2 °F 30.8 °F 12.2 °F 33% 30.02 in 10.0 mi West 15.0 mph 21.9 mph N/A   Clear
10:55 AM 41.0 °F 32.8 °F 14.0 °F 33% 30.01 in 10.0 mi West 16.1 mph 23.0 mph N/A   Clear
11:15 AM 41.0 °F 31.6 °F 12.2 °F 31% 30.01 in 10.0 mi WSW 20.7 mph 26.5 mph N/A   Scattered Clouds
11:35 AM 37.4 °F 27.8 °F 10.4 °F 33% 30.00 in 10.0 mi West 17.3 mph 23.0 mph N/A   Scattered Clouds
11:55 AM 37.4 °F 27.8 °F 10.4 °F 33% 29.99 in 10.0 mi West 17.3 mph 27.6 mph N/A   Scattered Clouds
12:15 PM 37.4 °F 27.8 °F 12.2 °F 36% 29.99 in 10.0 mi West 17.3 mph 25.3 mph N/A   Scattered Clouds
12:35 PM 37.4 °F 30.8 °F 12.2 °F 36% 29.99 in 10.0 mi West 9.2 mph - N/A   Mostly Cloudy
12:55 PM 37.4 °F 28.5 °F 17.6 °F 45% 29.99 in 10.0 mi WNW 15.0 mph 21.9 mph N/A   Overcast
1:15 PM 35.6 °F 26.2 °F 19.4 °F 52% 29.99 in 10.0 mi NW 15.0 mph 20.7 mph N/A   Mostly Cloudy
1:35 PM 37.4 °F 28.2 °F 17.6 °F 45% 30.00 in 10.0 mi WNW 16.1 mph 21.9 mph N/A   Scattered Clouds
1:55 PM 35.6 °F 26.2 °F 14.0 °F 41% 30.00 in 10.0 mi WNW 15.0 mph 21.9 mph N/A   Scattered Clouds
2:15 PM 35.6 °F 25.9 °F 14.0 °F 41% 30.01 in 10.0 mi WNW 16.1 mph 21.9 mph N/A   Scattered Clouds
2:35 PM 35.6 °F 25.9 °F 12.2 °F 38% 30.02 in 10.0 mi NW 16.1 mph 23.0 mph N/A   Scattered Clouds
2:55 PM 35.6 °F 26.2 °F 12.2 °F 38% 30.03 in 10.0 mi NW 15.0 mph 19.6 mph N/A   Mostly Cloudy
3:15 PM 33.8 °F 23.5 °F 12.2 °F 41% 30.05 in 10.0 mi WNW 16.1 mph 23.0 mph N/A   Scattered Clouds
3:35 PM 33.8 °F 25.3 °F 12.2 °F 41% 30.06 in 10.0 mi WNW 11.5 mph 21.9 mph N/A   Scattered Clouds
3:55 PM 33.8 °F 24.3 °F 12.2 °F 41% 30.06 in 10.0 mi NW 13.8 mph 18.4 mph N/A   Mostly Cloudy
4:15 PM 33.8 °F 24.8 °F 10.4 °F 38% 30.07 in 10.0 mi WNW 12.7 mph - N/A   Mostly Cloudy
4:35 PM 33.8 °F 24.8 °F 10.4 °F 38% 30.08 in 10.0 mi NW 12.7 mph - N/A   Mostly Cloudy
4:55 PM 32.0 °F 23.6 °F 10.4 °F 41% 30.08 in 10.0 mi NW 10.4 mph - N/A   Scattered Clouds
5:15 PM 32.0 °F 23.6 °F 10.4 °F 41% 30.10 in 10.0 mi NW 10.4 mph 17.3 mph N/A   Mostly Cloudy
5:35 PM 32.0 °F 23.0 °F 10.4 °F 41% 30.11 in 10.0 mi NW 11.5 mph 18.4 mph N/A   Mostly Cloudy
5:55 PM 32.0 °F 23.0 °F 10.4 °F 41% 30.12 in 10.0 mi NW 11.5 mph - N/A   Mostly Cloudy
6:15 PM 32.0 °F 23.6 °F 10.4 °F 41% 30.13 in 10.0 mi NW 10.4 mph 16.1 mph N/A   Mostly Cloudy
6:35 PM 30.2 °F 23.4 °F 10.4 °F 44% 30.13 in 10.0 mi NNW 6.9 mph - N/A   Overcast
6:55 PM 30.2 °F 24.3 °F 12.2 °F 47% 30.13 in 10.0 mi NW 5.8 mph - N/A   Overcast
7:15 PM 30.2 °F 24.3 °F 12.2 °F 47% 30.14 in 10.0 mi NW 5.8 mph - N/A   Overcast
7:35 PM 30.2 °F 25.4 °F 12.2 °F 47% 30.14 in 10.0 mi NW 4.6 mph - N/A   Overcast
7:55 PM 30.2 °F 24.3 °F 12.2 °F 47% 30.14 in 10.0 mi NW 5.8 mph - N/A   Overcast
8:15 PM 30.2 °F 25.4 °F 12.2 °F 47% 30.14 in 10.0 mi NW 4.6 mph - N/A   Overcast
8:35 PM 30.2 °F 24.3 °F 12.2 °F 47% 30.14 in 10.0 mi WNW 5.8 mph - N/A   Overcast
8:55 PM 30.2 °F 24.3 °F 12.2 °F 47% 30.14 in 10.0 mi WNW 5.8 mph - N/A   Overcast
9:15 PM 30.2 °F 24.3 °F 12.2 °F 47% 30.15 in 10.0 mi WNW 5.8 mph - N/A   Overcast
9:35 PM 30.2 °F 26.7 °F 12.2 °F 47% 30.14 in 10.0 mi WNW 3.5 mph - N/A   Overcast
9:55 PM 30.2 °F - 12.2 °F 47% 30.14 in 10.0 mi Calm Calm - N/A   Overcast
10:15 PM 30.2 °F 24.3 °F 12.2 °F 47% 30.14 in 10.0 mi WNW 5.8 mph - N/A   Overcast
10:35 PM 30.2 °F 25.4 °F 12.2 °F 47% 30.14 in 10.0 mi WNW 4.6 mph - N/A   Overcast
10:55 PM 28.4 °F 21.2 °F 12.2 °F 51% 30.14 in 10.0 mi WNW 6.9 mph - N/A   Overcast
11:15 PM 28.4 °F 22.2 °F 12.2 °F 51% 30.14 in 10.0 mi WNW 5.8 mph - N/A   Scattered Clouds
11:35 PM 28.4 °F - 12.2 °F 51% 30.14 in 10.0 mi Calm Calm - N/A   Clear
11:55 PM 26.6 °F - 12.2 °F 55% 30.14 in 10.0 mi Calm Calm - N/A   Clear